STARLINK-34059, 63872

Orbit data source: Space-Track

STARLINK-34059, 63872 is a payload satellite owned by SpaceX/Seattle (US) in LEO that was launched on Sat, 10 May 2025 UTC via an FALCON 9 launch vehicle from the Air Force Western Test Range (AFWTR). Payload-class satellites include a variety of spacecraft equipped with specific instruments for various scientific and technological missions. These include communications satellites like Starlink; space stations such as the ISS; scientific satellites like the Hubble; Earth observation satellites from companies like Planet Labs, Umbra, and HawkEye 360; GPS; miniature CubeSats for education and research; and military/defense satellites.

Loading next visibility...
Identifier
63872, 2025-094J
Orbit
LEO
Country
Flag of USUS
Related business
Manufacturer
SpaceX/Seattle
Mission
Operational Commercial Communications
Bus & Motor
STARLINK V2MO, Unknown motor
Mass
575 kg wet, ~530 kg dry
Launch date (UTC)
2025-05-10 (1 year ago)
Launch vehicle
FALCON 9
Launch site
Air Force Western Test Range (AFWTR)
Object type
Payload
Rocket body
Debris
Shape & HBR
Box + 2 Pan, 17.7 m
Radar Cross Section
36.964 m², Large (>1 m²)

Expand to show TLE details & history
Last TLE update: 1 day ago

TLE from 1 day ago
0 STARLINK-34059
1 63872U 25094J   26170.86021496  .00004185  00000-0  35822-3 0  9999
2 63872  70.0021 337.0016 0003221 268.9357  91.1433 14.98338436 62509
Epoch: 2026-06-19T20:38Z
TLE epoch observation values (Epoch: 2026-06-19T20:38:42.572Z)
Latitude
-0.00003°
Longitude
119.24107°
Altitude
574.499 km
Speed
7.574 km/s
True Right ascension
22h 28m 00s
True Declination
0° 00' 00"
Sunlit
Object was in daylight at epoch
Visualization orbit readout
Latitude
Unknown
Longitude
Unknown
Altitude
Unknown
Speed
Unknown
Apparent Right ascension
Unknown
Apparent Declination
Unknown
Sunlit
N/A
Visualization observer readout
Local Sidereal Time
08:33:36
Azimuth
Unknown
Elevation
Unknown
Doppler factor
Unknown
Orbital elements
Apogee altitude
572.216 km
Perigee altitude
567.74 km
Semi-major axis
6,948.115 km
Eccentricity
0.00032
Inclination
70.0021°
RAAN
337.0016°
Arg. of periapsis
268.9357°
True anomaly
91.1802°
Mean anomaly
91.1433°
Eccentric anomaly
91.16175°
Mean motion
3.74751 °/min
Orbital period
96.06 mins
BSTAR
0.00035822
Loading maneuver chart data...
Computing Atmospheric mass density...
Loading historical data...
Loading historical data...
Loading historical data...
Loading historical data...
Loading historical data...
Loading historical data...
Loading historical data...

Documentation

Showing up to 5 results
|